Terug naar catalogus

COSMOS 1275 DEB

ActiefPO
NORAD 15767·DEBRIS·🇷🇺 Russia

Gelanceerd Jun 4, 1981 vanaf Plesetsk Cosmodrome

Loading…

Volgende Passages (komende 24 uur)

TLE

VersSource: Space-Track

Epoch: Sep 14, 2026, 20:11 UTC

1 15767U 81053KC  26257.84140495  .00061654  00000-0  38958-2 0  9997
2 15767  82.8806 144.2057 0005399  54.8632 305.3103 15.08755646131981

Volg COSMOS 1275 DEB in realtime met AllMySat

Download on the App Store